Theta_e
318 310 310 311 308 307 305 302 299 296 295 295 295 295 294 294 294 298 298 311 315 317 320 321 322 323 324 325 325 321 322 322 321 320 319 319 320 319 319 319 321 323 327
317 311 310 310 309 306 304 301 296 295 294 294 294 294 293 293 294 295 300 305 316 318 318 322 323 324 325 327 324 319 317 318 315 316 317 318 318 315 316 317 318 320 321
317 311 308 308 309 306 302 297 295 294 293 294 293 293 293 293 293 295 299 304 305 313 319 320 323 326 324 323 324 319 315 317 314 316 317 316 313 314 315 316 316 317 316
316 312 307 307 306 303 300 295 294 293 292 292 290 291 291 292 293 294 296 302 303 302 308 313 319 324 320 319 323 319 318 316 313 314 313 312 312 312 311 312 313 314 314
313 309 306 305 304 300 296 295 292 292 290 290 290 290 290 291 291 294 294 299 302 299 299 306 306 308 317 318 322 318 317 314 313 312 311 310 309 310 311 311 312 312 313
310 306 304 304 301 297 294 293 291 290 290 290 292 290 289 290 290 289 292 297 295 297 297 295 295 298 309 316 316 317 316 313 313 310 309 308 308 308 308 309 309 310 310
311 304 302 302 298 296 294 292 291 290 289 288 288 287 287 289 289 289 291 293 293 292 292 292 293 294 298 309 313 315 316 314 311 308 307 307 306 306 306 307 307 308 309
310 305 301 299 296 293 292 292 291 289 289 289 286 285 283 285 287 288 289 291 290 290 290 291 290 292 295 297 300 312 314 314 311 308 306 305 305 305 306 306 306 307 307
308 307 303 298 295 294 293 292 291 290 288 288 288 287 283 283 283 286 287 288 289 287 288 289 289 290 292 294 302 306 313 312 310 308 305 304 304 304 304 305 305 305 306
303 303 303 299 296 293 292 291 292 290 289 287 286 290 288 287 283 282 284 286 287 287 286 287 287 288 290 293 297 300 307 307 306 305 303 303 303 303 304 304 304 304 304
300 300 300 298 297 295 292 291 290 289 289 289 287 285 285 286 286 283 281 282 284 285 287 287 286 286 288 292 291 295 302 302 301 301 301 300 301 301 302 303 303 303 303
295 296 297 297 296 294 292 291 290 289 290 289 288 287 286 286 285 284 282 280 281 283 286 286 286 286 287 289 292 294 299 300 299 298 298 298 299 300 301 302 302 302 302
290 291 291 292 293 294 293 291 289 288 288 289 289 289 289 288 287 286 285 281 281 282 282 284 286 286 288 288 289 292 296 298 298 297 296 297 297 297 298 299 300 300 300
289 289 289 289 290 292 293 291 289 288 287 288 289 286 288 289 287 286 286 283 280 280 280 282 283 286 287 287 290 293 290 296 296 296 296 296 296 297 297 298 299 299 298
288 288 288 287 288 288 289 289 288 287 286 287 288 288 288 290 287 289 286 285 288 285 280 281 281 285 287 287 289 290 287 293 295 295 295 296 296 296 296 297 298 298 298
285 285 285 286 286 287 286 286 285 286 285 286 287 286 287 289 286 287 289 286 285 288 286 284 282 282 287 287 288 289 286 289 293 294 294 295 295 295 296 296 297 297 297
283 283 284 284 284 284 285 285 285 285 285 285 285 285 286 287 288 288 285 287 287 284 287 288 282 281 284 285 285 287 285 285 287 292 293 294 294 294 295 295 296 296 296
283 282 283 282 282 283 283 282 283 283 284 284 284 284 285 287 284 287 288 286 287 287 287 287 280 279 281 285 285 285 283 284 283 289 292 293 293 293 294 294 294 294 294
281 282 281 281 280 281 281 282 282 282 282 282 283 284 285 284 284 285 285 285 286 287 285 286 286 279 281 282 280 282 282 282 281 286 291 291 292 292 293 293 293 293 292
280 280 281 281 280 280 280 281 282 281 281 282 283 283 284 285 285 285 285 285 285 285 284 284 286 278 278 280 283 281 278 279 279 281 285 287 289 291 292 292 292 292 291
279 279 279 279 279 279 280 279 281 281 281 282 283 283 283 284 286 287 285 285 284 284 285 283 284 277 277 278 280 281 280 280 279 280 279 281 284 285 287 291 290 291 291
278 278 277 277 277 278 281 283 283 280 281 281 281 282 283 283 284 287 289 290 289 285 283 284 284 284 282 282 281 281 281 278 276 279 278 278 281 281 283 284 289 290 290
278 277 277 277 276 276 280 281 281 280 279 280 280 281 282 283 283 283 286 288 289 290 291 286 284 284 284 283 281 281 280 281 281 279 280 278 279 278 281 282 288 290 290
275 275 276 276 276 276 279 280 280 277 277 278 279 280 281 281 282 282 282 282 283 284 286 287 288 287 287 285 283 283 282 282 281 279 281 277 278 277 280 281 286 289 289
271 271 273 273 273 274 278 278 278 275 275 275 276 277 278 280 283 285 282 282 282 283 286 289 290 291 291 291 286 282 281 279 278 276 279 277 277 278 279 280 282 288 288
267 268 268 269 269 269 273 275 275 273 271 272 274 275 278 278 282 284 282 281 280 282 283 283 284 287 289 288 290 284 282 279 280 278 279 278 277 277 275 279 280 282 284
Wind_Speed
6 5 5 5 5 4 5 5 4 4 4 3 3 4 4 3 4 2 0 1 3 3 7 7 8 8 9 10 13 8 8 9 8 6 6 5 7 7 6 5 4 4 7
6 6 6 6 6 5 5 5 5 5 4 3 3 3 3 3 3 4 2 1 5 4 5 8 9 9 10 14 13 10 4 8 4 5 6 6 9 5 5 5 6 6 7
7 7 6 5 6 6 7 6 5 4 4 3 4 4 3 3 3 3 3 2 2 8 10 4 10 11 11 10 12 11 6 8 3 7 8 8 5 5 6 6 6 6 6
10 7 5 5 5 5 5 5 5 4 5 5 4 4 3 3 4 4 3 3 3 2 6 9 5 10 10 8 12 10 9 8 5 6 6 5 5 5 5 5 6 6 6
9 7 5 5 6 4 4 5 2 4 3 3 4 4 4 3 4 3 5 5 6 5 3 5 7 7 5 8 10 9 10 7 8 7 6 5 3 4 4 5 5 5 5
7 6 5 6 5 4 3 2 3 1 2 4 3 3 3 3 3 4 4 3 4 5 5 5 3 1 2 7 8 9 10 9 9 8 6 6 5 3 3 3 4 4 4
7 6 5 6 5 6 6 5 4 5 1 3 4 3 3 3 4 4 4 4 5 5 5 4 3 3 3 9 12 12 13 12 10 8 7 6 5 4 3 3 3 4 4
6 6 6 5 6 5 6 7 5 3 3 6 5 2 2 4 4 5 4 5 7 5 6 6 6 6 5 4 6 14 16 15 12 10 8 7 6 6 5 4 4 3 3
5 6 6 5 6 6 7 7 7 8 5 5 5 5 2 6 1 1 6 5 5 4 4 6 7 7 6 5 7 10 17 15 14 12 10 9 8 7 6 5 5 4 3
2 1 3 4 5 4 6 6 6 5 5 6 2 7 2 4 4 2 3 4 5 7 7 5 5 6 6 5 7 8 12 16 15 13 11 10 10 9 8 7 6 5 4
6 3 1 2 3 4 4 6 5 6 4 5 5 2 2 1 1 3 4 4 2 5 6 7 6 5 6 5 4 7 16 17 16 15 15 13 12 10 10 9 8 6 5
6 8 7 3 3 3 5 5 7 7 8 5 4 5 5 5 5 4 3 4 4 5 6 6 7 7 5 5 8 13 18 18 17 16 16 15 14 13 11 10 9 8 7
5 9 9 7 5 5 5 5 6 6 7 8 9 8 7 5 4 4 3 3 4 4 3 4 8 7 8 6 9 15 18 20 19 19 18 17 15 14 13 12 10 9 7
6 8 8 7 8 7 6 4 3 5 5 7 10 7 6 8 5 4 5 5 2 3 2 6 4 9 9 9 12 21 12 21 22 20 18 17 16 16 15 14 13 11 9
8 9 9 8 7 7 7 6 4 5 5 6 8 8 8 8 5 7 4 5 9 12 7 5 5 11 10 9 12 13 12 20 23 22 20 19 18 17 16 15 15 14 12
8 10 11 10 10 8 7 6 5 5 5 5 6 7 9 9 6 5 8 6 5 12 15 7 10 6 12 10 12 13 13 16 22 23 22 21 20 19 18 17 16 15 13
5 5 6 9 11 10 9 7 6 7 7 7 7 7 10 9 9 8 5 8 9 6 16 10 4 6 9 11 10 12 11 12 11 22 23 22 22 21 20 19 18 16 15
9 8 7 5 5 6 10 9 7 6 7 8 7 7 10 7 9 11 9 10 11 9 11 18 5 5 8 14 13 13 11 10 10 20 24 23 22 22 21 20 20 18 17
9 10 9 10 11 10 8 9 8 8 7 7 7 8 10 7 10 9 9 11 10 9 9 12 11 3 6 5 4 7 10 10 8 17 25 24 24 23 23 21 21 19 17
9 9 10 10 10 12 12 13 12 8 7 7 8 9 10 10 13 12 10 12 11 11 8 10 12 5 4 4 8 10 7 7 10 9 16 15 19 23 24 24 22 19 18
9 10 10 10 10 11 9 10 12 11 11 11 9 9 10 11 17 17 10 12 10 11 11 10 13 5 6 4 13 8 11 8 9 9 9 9 9 10 13 23 17 21 22
9 9 11 11 13 10 19 22 20 12 12 13 13 12 11 12 15 23 25 26 19 13 14 12 13 16 16 11 9 11 10 8 8 8 10 12 11 12 11 10 21 24 26
16 16 16 14 15 14 23 26 27 15 15 14 15 14 13 11 13 13 20 25 24 27 28 16 18 19 15 13 10 13 15 12 12 7 16 13 11 13 11 12 25 27 26
17 17 19 19 18 17 29 29 29 18 15 17 17 18 17 17 16 14 14 15 16 15 18 16 20 20 18 10 16 17 16 18 6 2 14 9 9 13 10 10 26 29 27
18 18 18 20 19 20 30 32 28 17 17 20 18 19 19 20 25 28 17 17 17 18 18 27 30 30 26 24 17 10 13 10 11 5 11 4 6 7 10 9 11 29 27
17 15 19 19 22 23 30 35 30 15 18 16 19 21 29 25 33 33 20 18 17 19 14 15 14 24 27 21 26 18 14 16 14 9 10 11 7 6 3 5 9 10 13
Wind_Direction
175 163 171 163 163 157 157 165 170 182 182 160 147 147 141 133 117 127 106 50 315 267 185 173 175 168 165 149 120 101 94 86 69 77 80 83 92 84 83 89 97 58 63
169 175 170 173 171 172 165 166 173 175 178 163 164 155 152 141 140 140 148 20 22 0 221 190 178 175 170 147 134 124 133 123 107 127 125 119 80 79 82 86 90 83 57
171 176 171 178 183 180 163 157 166 156 159 171 171 165 156 164 165 153 150 162 61 44 33 209 194 167 164 158 155 141 168 127 119 134 115 99 116 118 100 86 92 85 89
166 171 174 184 177 167 162 164 162 167 178 176 173 193 176 172 172 175 164 166 154 91 57 44 4 190 179 186 158 156 156 139 158 144 138 132 130 115 117 117 106 94 83
166 160 170 179 165 164 168 167 166 146 169 183 183 181 185 186 191 180 188 159 166 153 133 92 59 35 182 178 173 174 172 150 171 147 150 126 126 142 110 106 100 88 81
158 156 167 172 156 152 161 174 153 190 155 169 162 163 197 204 196 200 209 178 162 164 166 155 133 77 24 166 184 190 180 174 161 166 163 162 147 143 132 121 106 100 97
165 167 171 164 158 170 173 165 139 176 231 140 89 358 326 279 231 219 208 196 186 181 178 179 181 184 200 199 204 199 187 188 177 185 181 171 170 172 162 158 148 133 123
177 166 173 182 167 148 166 176 161 150 183 185 148 121 232 307 263 236 225 212 206 185 187 193 193 198 199 205 233 213 202 193 190 192 190 190 189 188 185 179 171 157 143
182 176 176 173 174 169 190 189 174 171 191 224 234 151 120 228 145 205 233 218 208 223 215 199 196 201 212 202 214 226 213 193 194 193 195 198 199 201 199 195 185 177 163
75 206 220 188 188 185 184 194 193 180 145 197 267 246 229 146 187 272 288 232 207 210 206 220 211 212 203 199 194 176 171 186 191 197 202 203 206 208 206 202 199 189 173
5 16 334 242 218 191 218 198 191 202 189 181 191 182 209 260 174 142 229 253 256 214 209 202 200 203 216 191 189 188 179 189 195 197 196 202 209 212 211 205 200 192 183
355 346 319 271 259 231 212 210 214 210 218 223 207 194 181 178 201 191 201 229 218 241 209 197 198 201 199 186 193 194 195 200 203 203 203 205 204 208 211 212 208 200 190
353 355 353 333 306 272 235 210 215 217 214 223 226 228 230 223 169 194 156 210 222 241 232 217 208 193 202 187 193 192 200 204 207 206 205 205 207 209 209 210 212 209 203
344 343 344 349 344 323 297 255 224 226 221 228 234 229 236 234 210 194 187 159 273 274 264 241 207 199 202 200 198 191 199 202 206 210 211 210 212 210 208 209 207 206 204
345 346 344 347 340 341 339 313 274 254 239 237 240 234 235 242 239 235 212 186 232 254 235 236 212 207 204 198 200 197 198 205 206 211 212 210 214 217 217 215 211 203 199
353 348 349 344 339 336 333 336 311 287 265 259 252 236 241 249 235 230 239 229 225 245 262 188 218 197 201 201 200 193 198 199 206 210 214 212 212 214 217 218 217 213 209
328 336 337 337 337 332 325 329 318 296 279 262 254 244 251 245 249 248 220 237 244 225 254 254 224 202 195 196 196 199 190 196 206 209 214 216 213 213 214 219 220 218 214
335 331 327 308 287 303 314 310 297 276 264 266 265 255 255 249 251 252 250 238 240 229 244 256 216 213 198 205 199 194 198 202 200 209 210 216 218 217 214 218 219 218 219
314 314 318 322 322 312 293 281 277 284 283 276 269 260 260 246 251 253 249 248 246 244 233 246 245 197 217 194 168 205 197 201 199 204 210 214 218 219 217 217 222 220 217
282 287 285 284 292 297 298 300 298 286 270 272 275 274 268 256 256 254 243 246 247 244 231 231 241 187 199 208 199 196 196 201 204 197 211 214 217 221 219 215 217 219 216
258 255 263 262 266 267 270 279 276 280 287 285 268 261 262 258 256 253 253 250 235 241 241 234 243 188 195 168 203 189 208 202 216 198 198 209 204 210 219 220 215 206 210
285 271 279 273 272 264 276 287 290 283 278 274 274 270 260 258 258 260 257 253 246 236 238 237 241 238 228 216 192 197 196 188 215 198 194 213 202 210 204 210 214 207 205
306 299 292 287 282 279 286 292 294 289 282 277 272 267 264 254 248 250 257 258 254 248 247 242 241 240 240 210 185 198 204 213 221 162 192 216 193 213 208 206 210 212 207
300 298 296 295 293 291 293 294 296 292 288 283 277 271 264 263 253 244 245 248 248 246 242 240 249 248 243 223 200 202 202 215 223 152 193 212 182 209 197 204 208 207 208
298 296 293 292 291 289 292 293 296 295 290 284 280 276 271 268 261 259 251 245 246 246 246 244 241 250 256 242 206 194 206 199 223 197 196 174 187 186 189 195 198 205 202
292 294 293 293 293 293 295 297 296 288 284 284 281 277 273 269 266 262 255 247 245 245 237 243 245 245 240 245 247 206 204 207 217 214 200 196 156 155 175 206 184 199 196